Home > Weather > Kløfta > Past weeks

Flag for Norway Weather for the Past 2 Weeks in Kløfta, Norway

Now
36 °F

Light rain. Low clouds.


Feels Like: 27 °F
Forecast: 29 / 38 °F
Wind: 14 mph from South

Location: Oslo Gardermoen Airport

Current Time: Feb 8, 2016 at 8:02:37 AM

Latest Report: Feb 8, 2016 at 7:20 AM


Visibility: N/A

Pressure: 28.94 "Hg

Humidity: 93%

Dew point: 34 °F

Location of KløftaLocation

Historic Weather in Kløfta — Graph

°F

Kløfta Temperature Yesterday

Maximum temperature yesterday: 39 °F (at 4:20 AM)
Minimum temperature yesterday: 34 °F (at 12:50 AM)
Average temperature yesterday: 38 °F

High & Low Weather Summary for the Past Weeks

 TemperatureHumidityPressure
High41 °F (Jan 29, 4:50 PM)100% (Jan 25, 10:20 AM)30.09 "Hg (Jan 25, 10:20 AM)
Low19 °F (Feb 1, 4:20 AM)38% (Feb 4, 1:20 PM)28.77 "Hg (Feb 2, 4:50 PM)
Average32 °F81%29.35 "Hg
* Reported Jan 24 6:20 AM — Feb 8 6:50 AM, Kløfta, Weather by CustomWeather, © 2016

Note: Actual official high and low records may vary slightly from our data, if they occured in-between our weather recording intervals... More about our weather records

Advertising

Kløfta Weather History for the Previous 24 Hours

 ConditionsComfort  
Time TempWeatherWind HumidityBarometerVisibility
6:50 AM
Mon, Feb 8
36 °FLight rain. Passing clouds.17 mph93%28.94 "HgN/A
6:20 AM37 °FLight rain. Passing clouds.15 mph87%28.97 "HgN/A
5:50 AM37 °FLight rain. Passing clouds.18 mph87%28.97 "HgN/A
5:20 AM37 °FSprinkles. Passing clouds.18 mph87%28.97 "HgN/A
4:50 AM37 °FSprinkles. Passing clouds.15 mph87%29.00 "HgN/A
4:20 AM37 °FSprinkles. Passing clouds.16 mph87%29.00 "HgN/A
3:50 AM37 °FSprinkles. Passing clouds.18 mph87%29.00 "HgN/A
3:20 AM37 °FPassing clouds.20 mph87%29.00 "HgN/A
2:50 AM37 °FPassing clouds.21 mph87%29.00 "HgN/A
2:20 AM36 °FSprinkles. Passing clouds.21 mph93%29.03 "HgN/A
1:50 AM36 °FPassing clouds.21 mph93%29.03 "HgN/A
1:20 AM37 °FPartly cloudy.21 mph87%29.03 "HgN/A
12:50 AM36 °FPartly cloudy.22 mph93%29.03 "HgN/A
12:20 AM36 °FLight rain. Partly cloudy.17 mph93%29.06 "HgN/A
11:50 PM
Sun, Feb 7
36 °FPassing clouds.18 mph87%29.06 "HgN/A
11:20 PM36 °FPassing clouds.21 mph87%29.06 "HgN/A
10:50 PM37 °FPassing clouds.20 mph87%29.06 "HgN/A
10:20 PM37 °FSprinkles. Passing clouds.20 mph87%29.06 "HgN/A
9:50 PM37 °FSprinkles. Passing clouds.23 mph87%29.06 "HgN/A
9:20 PM37 °FOvercast.20 mph93%29.09 "HgN/A
8:50 PM37 °FPassing clouds.17 mph87%29.09 "HgN/A
8:20 PM37 °FPassing clouds.18 mph87%29.09 "HgN/A
7:50 PM37 °FOvercast.18 mph93%29.09 "HgN/A
7:20 PM37 °FPassing clouds.17 mph93%29.09 "HgN/A
6:50 PM39 °FPassing clouds.18 mph87%29.09 "HgN/A
6:20 PM37 °FLight rain. Partly cloudy.17 mph93%29.09 "HgN/A
5:50 PM37 °FLight rain. Low clouds.18 mph93%29.09 "HgN/A
5:20 PM39 °FLight rain. Passing clouds.18 mph93%29.09 "HgN/A
4:50 PM39 °FLight rain. Mostly cloudy.17 mph93%29.09 "HgN/A
4:20 PM39 °FRain. Low clouds.14 mph93%29.09 "Hg4 mi
3:50 PM39 °FRain. Fog.10 mph93%29.09 "Hg3 mi
3:20 PM39 °FRain. Partly sunny.13 mph93%29.12 "Hg4 mi
2:50 PM39 °FLight rain. Fog.15 mph93%29.12 "Hg3 mi
2:20 PM39 °FLight rain. Fog.13 mph93%29.15 "Hg3 mi
1:50 PM39 °FLight rain. Fog.13 mph93%29.15 "Hg2 mi
1:20 PM39 °FLight rain. Low clouds.12 mph87%29.15 "Hg4 mi
12:50 PM39 °FLight rain. Fog.12 mph87%29.18 "Hg3 mi
12:20 PM39 °FLight rain. Fog.13 mph93%29.18 "Hg3 mi
11:50 AM39 °FLight rain. Fog.10 mph87%29.21 "Hg3 mi
11:20 AM37 °FFog.10 mph93%29.21 "Hg3 mi
10:50 AM37 °FFog.12 mph93%29.24 "Hg3 mi
10:20 AM39 °FFog.12 mph87%29.24 "Hg3 mi
9:50 AM39 °FFog.12 mph93%29.24 "Hg3 mi
9:20 AM39 °FFog.14 mph93%29.24 "Hg3 mi
8:50 AM39 °FFog.15 mph93%29.24 "Hg3 mi
8:20 AM39 °FPartly sunny.17 mph93%29.24 "Hg4 mi
Weather by CustomWeather, © 2016

See weather overviewHow to use our weather pages